FW9548 Weather Reports


Display with metric or nautical units.
time (UTC)temp
F
wind
direction
speed
MPH
gust
MPH
rain 1hr
in
rain 24hr
in
rain mn
in
humidity
%
barometer
mb
20260502204803 58 0 0.0 0.0 0.00 0.01 0.01 39 1008.0
20260502204724 58 0 0.0 0.0 0.00 0.01 0.01 39 1008.0
20260502204624 58 0 0.0 0.0 0.00 0.01 0.01 39 1008.0
20260502204524 58 0 0.0 0.0 0.00 0.01 0.01 38 1008.0
20260502204424 58 0 0.0 0.0 0.00 0.01 0.01 38 1007.9
20260502204324 58 0 0.0 0.0 0.00 0.01 0.01 39 1008.0
20260502204225 58 0 0.0 0.0 0.00 0.01 0.01 38 1008.0
20260502204124 58 0 0.0 0.0 0.00 0.01 0.01 38 1008.0
20260502204024 59 0 0.0 0.0 0.00 0.01 0.01 39 1008.0
20260502203924 59 0 0.0 0.0 0.00 0.01 0.01 40 1008.0
20260502203825 59 0 0.0 0.0 0.00 0.01 0.01 39 1008.0
20260502203703 58 0 0.0 0.0 0.00 0.01 0.01 39 1008.0
20260502203603 58 0 0.0 0.0 0.00 0.01 0.01 39 1008.0
20260502203503 58 0 0.0 0.0 0.00 0.01 0.01 39 1008.1
20260502203403 58 0 0.0 0.0 0.00 0.01 0.01 39 1008.1
20260502203303 58 0 0.0 0.0 0.00 0.01 0.01 39 1008.1
20260502203203 58 0 0.0 0.0 0.00 0.01 0.01 39 1008.2
20260502203103 58 0 0.0 0.0 0.00 0.01 0.01 39 1008.2
20260502203003 58 0 0.0 0.0 0.00 0.01 0.01 39 1008.2
20260502202903 58 0 0.0 0.0 0.00 0.01 0.01 39 1008.2
20260502202803 58 0 0.0 0.0 0.00 0.01 0.01 39 1008.2
20260502202703 58 0 0.0 0.0 0.00 0.01 0.01 39 1008.2
20260502202603 58 0 0.0 0.0 0.00 0.01 0.01 39 1008.2
20260502202503 58 28 0.0 5.0 0.00 0.01 0.01 39 1008.3
20260502202403 58 28 1.0 5.0 0.00 0.01 0.01 39 1008.3
20260502202304 58 28 1.0 6.0 0.00 0.01 0.01 38 1008.3
20260502202203 58 28 1.0 6.0 0.00 0.01 0.01 38 1008.3
20260502202103 58 28 1.0 6.0 0.00 0.01 0.01 38 1008.3
20260502202003 58 28 1.0 6.0 0.00 0.01 0.01 39 1008.3
20260502201903 58 28 1.0 6.0 0.00 0.01 0.01 38 1008.4
20260502201803 58 28 1.0 6.0 0.00 0.01 0.01 38 1008.4
20260502201703 58 28 1.0 6.0 0.00 0.01 0.01 39 1008.4
20260502201603 58 28 1.0 6.0 0.00 0.01 0.01 38 1008.4
20260502201503 58 28 0.0 6.0 0.00 0.01 0.01 38 1008.4
20260502201403 58 28 0.0 6.0 0.00 0.01 0.01 38 1008.4
20260502201303 58 0 0.0 0.0 0.00 0.01 0.01 38 1008.4
20260502201224 58 0 0.0 0.0 0.00 0.01 0.01 38 1008.4
20260502201124 58 0 0.0 0.0 0.00 0.01 0.01 38 1008.4
20260502201024 58 0 0.0 0.0 0.00 0.01 0.01 38 1008.4
20260502200924 58 0 0.0 0.0 0.00 0.01 0.01 38 1008.4
20260502200824 58 0 0.0 0.0 0.00 0.01 0.01 38 1008.4
20260502200703 58 28 0.0 1.0 0.00 0.01 0.01 39 1008.5
20260502200603 58 28 0.0 1.0 0.00 0.01 0.01 40 1008.5
20260502200503 58 28 0.0 1.0 0.00 0.01 0.01 40 1008.5
20260502200403 58 28 0.0 1.0 0.00 0.01 0.01 40 1008.6
20260502200303 58 28 0.0 1.0 0.00 0.01 0.01 39 1008.6
20260502200203 58 28 0.0 1.0 0.00 0.01 0.01 39 1008.6
20260502200104 58 28 0.0 1.0 0.00 0.01 0.01 39 1008.6
20260502200004 58 28 0.0 1.0 0.00 0.01 0.01 41 1008.6
20260502195904 58 28 0.0 1.0 0.00 0.01 0.01 41 1008.6
20260502195804 58 28 0.0 2.0 0.00 0.01 0.01 40 1008.6
20260502195704 58 28 0.0 5.0 0.00 0.01 0.01 40 1008.6
20260502195625 58 28 0.0 5.0 0.00 0.01 0.01 40 1008.6
20260502195525 58 28 0.0 5.0 0.00 0.01 0.01 39 1008.6
20260502195425 58 29 0.0 5.0 0.00 0.01 0.01 39 1008.6
20260502195325 58 29 0.0 5.0 0.00 0.01 0.01 39 1008.6
20260502195225 58 30 1.0 5.0 0.00 0.01 0.01 39 1008.6
20260502195103 58 30 1.0 5.0 0.00 0.01 0.01 40 1008.7
20260502195004 58 30 1.0 6.0 0.00 0.01 0.01 40 1008.7
20260502194903 58 30 1.0 6.0 0.00 0.01 0.01 39 1008.7
20260502194803 58 32 1.0 9.0 0.00 0.01 0.01 39 1008.6
20260502194704 58 35 2.0 9.0 0.00 0.01 0.01 39 1008.6
20260502194603 58 35 2.0 9.0 0.00 0.01 0.01 39 1008.6
20260502194503 58 38 2.0 9.0 0.00 0.01 0.01 39 1008.6
20260502194403 58 45 2.0 9.0 0.00 0.01 0.01 40 1008.6
20260502194303 58 46 2.0 9.0 0.00 0.01 0.01 39 1008.6
20260502194204 58 47 1.0 9.0 0.00 0.01 0.01 38 1008.6
20260502194103 58 51 1.0 9.0 0.00 0.01 0.01 38 1008.6
20260502194004 58 56 1.0 9.0 0.00 0.01 0.01 38 1008.7
20260502193904 58 65 1.0 9.0 0.00 0.01 0.01 38 1008.7
20260502193804 58 95 0.0 6.0 0.00 0.01 0.01 39 1008.7
20260502193704 58 96 0.0 6.0 0.00 0.01 0.01 38 1008.7
20260502193603 58 96 0.0 6.0 0.00 0.01 0.01 39 1008.7
20260502193503 58 96 0.0 6.0 0.00 0.01 0.01 39 1008.7
20260502193403 58 0 0.0 0.0 0.00 0.01 0.01 41 1008.7
20260502193303 58 71 0.0 1.0 0.00 0.01 0.01 41 1008.7
20260502193203 58 71 0.0 1.0 0.00 0.01 0.01 41 1008.8
20260502193103 58 71 0.0 1.0 0.00 0.01 0.01 41 1008.8
20260502193003 58 71 0.0 1.0 0.00 0.01 0.01 42 1008.8
20260502192903 58 71 0.0 1.0 0.00 0.01 0.01 42 1008.8
20260502192803 58 71 0.0 1.0 0.00 0.01 0.01 42 1008.9
20260502192703 58 71 0.0 1.0 0.00 0.01 0.01 42 1008.9
20260502192624 58 71 0.0 1.0 0.00 0.01 0.01 41 1008.9
20260502192525 58 71 0.0 1.0 0.00 0.01 0.01 41 1008.9
20260502192424 58 71 0.0 1.0 0.00 0.01 0.01 41 1008.9
20260502192324 58 0 0.0 0.0 0.00 0.01 0.01 40 1008.9
20260502192203 58 0 0.0 0.0 0.00 0.01 0.01 41 1009.0
20260502192103 58 0 0.0 0.0 0.00 0.01 0.01 41 1009.0
20260502192003 58 0 0.0 0.0 0.00 0.01 0.01 40 1008.9
20260502191903 58 0 0.0 0.0 0.00 0.01 0.01 40 1009.0
20260502191803 58 0 0.0 0.0 0.00 0.01 0.01 40 1009.0
20260502191703 58 0 0.0 0.0 0.00 0.01 0.01 39 1009.0
20260502191603 58 0 0.0 0.0 0.00 0.01 0.01 39 1009.0
20260502191503 58 0 0.0 0.0 0.00 0.01 0.01 40 1009.1
20260502191403 58 0 0.0 0.0 0.00 0.01 0.01 41 1009.1
20260502191303 58 18 0.0 2.0 0.00 0.01 0.01 41 1009.1
20260502191203 58 18 0.0 3.0 0.00 0.01 0.01 41 1009.2
20260502191124 58 22 1.0 9.0 0.00 0.01 0.01 42 1009.2
20260502191024 58 26 1.0 11.0 0.00 0.01 0.01 42 1009.2
20260502190924 58 31 1.0 11.0 0.00 0.01 0.01 42 1009.2
20260502190824 58 31 1.0 11.0 0.00 0.01 0.01 42 1009.2
20260502190703 58 31 1.0 11.0 0.00 0.01 0.01 42 1009.2
20260502190603 58 31 1.0 11.0 0.00 0.01 0.01 42 1009.3
20260502190503 58 31 1.0 11.0 0.00 0.01 0.01 43 1009.3
20260502190403 58 31 1.0 11.0 0.00 0.01 0.01 43 1009.3
20260502190303 58 31 1.0 11.0 0.00 0.01 0.01 42 1009.3
20260502190203 58 33 1.0 11.0 0.00 0.01 0.01 42 1009.2
20260502190004 58 42 1.0 7.0 0.00 0.01 0.01 42 1009.2
20260502185903 58 36 1.0 8.0 0.00 0.01 0.01 40 1009.2
20260502185803 58 36 2.0 10.0 0.00 0.01 0.01 40 1009.2
20260502185704 58 39 2.0 10.0 0.00 0.01 0.01 39 1009.3
20260502185604 58 39 2.0 10.0 0.00 0.01 0.01 39 1009.3
20260502185504 58 39 2.0 10.0 0.00 0.01 0.01 38 1009.3
20260502185404 58 39 2.0 10.0 0.00 0.01 0.01 38 1009.3
20260502185305 58 39 2.0 10.0 0.00 0.01 0.01 38 1009.3
20260502185203 58 39 2.0 10.0 0.00 0.01 0.01 37 1009.3
20260502185104 59 40 1.0 10.0 0.00 0.01 0.01 37 1009.3
20260502185004 59 40 1.0 10.0 0.00 0.01 0.01 37 1009.3
20260502184904 59 44 1.0 10.0 0.00 0.01 0.01 37 1009.3
20260502184803 59 83 0.0 9.0 0.00 0.01 0.01 38 1009.3
20260502184704 59 91 0.0 1.0 0.00 0.01 0.01 38 1009.3
20260502184624 59 91 0.0 1.0 0.00 0.01 0.01 38 1009.3
20260502184525 58 91 0.0 1.0 0.00 0.01 0.01 38 1009.3
20260502184424 58 92 0.0 1.0 0.01 0.01 0.01 39 1009.3
20260502184324 58 0 0.0 0.0 0.01 0.01 0.01 39 1009.3
20260502184224 58 0 0.0 0.0 0.01 0.01 0.01 39 1009.3
20260502184103 58 5 0.0 4.0 0.01 0.01 0.01 38 1009.4
20260502184003 58 5 0.0 4.0 0.01 0.01 0.01 38 1009.4
20260502183904 58 5 0.0 4.0 0.01 0.01 0.01 39 1009.4
20260502183804 58 5 0.0 4.0 0.01 0.01 0.01 38 1009.3
20260502183704 58 5 0.0 4.0 0.01 0.01 0.01 38 1009.4
20260502183603 58 5 0.0 7.0 0.01 0.01 0.01 38 1009.4
20260502183503 58 5 0.0 7.0 0.01 0.01 0.01 38 1009.4
20260502183403 58 5 0.0 7.0 0.01 0.01 0.01 38 1009.4
20260502183303 58 5 0.0 7.0 0.01 0.01 0.01 38 1009.4
20260502183203 58 5 0.0 7.0 0.01 0.01 0.01 38 1009.5
20260502183124 58 5 0.0 7.0 0.01 0.01 0.01 38 1009.5
20260502183025 58 5 1.0 7.0 0.01 0.01 0.01 38 1009.4
20260502182924 58 5 1.0 8.0 0.01 0.01 0.01 38 1009.4
20260502182824 58 5 1.0 9.0 0.01 0.01 0.01 37 1009.5
20260502182724 58 5 1.0 9.0 0.01 0.01 0.01 38 1009.5
20260502182603 58 5 1.0 9.0 0.01 0.01 0.01 38 1009.5
20260502182503 57 4 1.0 9.0 0.01 0.01 0.01 38 1009.5
20260502182403 57 4 1.0 9.0 0.01 0.01 0.01 38 1009.5
20260502182304 57 4 1.0 9.0 0.01 0.01 0.01 37 1009.5
20260502182203 57 4 1.0 9.0 0.01 0.01 0.01 37 1009.5
20260502182103 57 4 1.0 9.0 0.01 0.01 0.01 36 1009.5
20260502182003 57 4 1.0 9.0 0.01 0.01 0.01 36 1009.5
20260502181903 57 2 0.0 9.0 0.01 0.01 0.01 35 1009.5
20260502181803 58 360 1.0 10.0 0.01 0.01 0.01 35 1009.5
20260502181703 58 360 1.0 11.0 0.01 0.01 0.01 34 1009.5
20260502181603 58 360 1.0 11.0 0.01 0.01 0.01 34 1009.5
20260502181503 58 360 1.0 11.0 0.01 0.01 0.01 35 1009.5
20260502181403 58 360 1.0 11.0 0.01 0.01 0.01 34 1009.5
20260502181303 58 360 1.0 11.0 0.01 0.01 0.01 34 1009.5
20260502181203 58 360 1.0 11.0 0.01 0.01 0.01 34 1009.5
20260502181103 58 360 1.0 11.0 0.01 0.01 0.01 34 1009.5
20260502181003 58 360 1.0 11.0 0.01 0.01 0.01 33 1009.5
20260502180903 58 360 1.0 11.0 0.01 0.01 0.01 33 1009.5
20260502180803 58 360 0.0 11.0 0.01 0.01 0.01 33 1009.5
20260502180703 58 360 0.0 6.0 0.01 0.01 0.01 32 1009.4
20260502180624 58 360 0.0 6.0 0.01 0.01 0.01 32 1009.4
20260502180524 58 360 0.0 6.0 0.01 0.01 0.01 32 1009.5
20260502180424 58 360 0.0 6.0 0.01 0.01 0.01 31 1009.5
20260502180324 58 360 0.0 7.0 0.01 0.01 0.01 31 1009.5
20260502180224 58 360 0.0 7.0 0.01 0.01 0.01 30 1009.5
20260502170503 53 323 0.0 5.0 0.00 0.00 0.00 18 1010.2
20260502170403 53 9 1.0 7.0 0.00 0.00 0.00 18 1010.2
20260502170303 53 14 1.0 7.0 0.00 0.00 0.00 18 1010.2
20260502170203 53 16 1.0 8.0 0.00 0.00 0.00 19 1010.2
20260502170103 53 16 1.0 8.0 0.00 0.00 0.00 19 1010.3
20260502164303 53 16 3.0 11.0 0.00 0.00 0.00 20 1010.3
20260502164203 53 18 4.0 11.0 0.00 0.00 0.00 20 1010.3
20260502164104 53 17 3.0 11.0 0.00 0.00 0.00 20 1010.3
20260502164024 53 19 4.0 11.0 0.00 0.00 0.00 21 1010.3
20260502163903 53 21 4.0 11.0 0.00 0.00 0.00 21 1010.3
20260502163804 53 22 4.0 11.0 0.00 0.00 0.00 21 1010.3
20260502163703 53 21 5.0 11.0 0.00 0.00 0.00 21 1010.3
20260502163604 53 21 4.0 11.0 0.00 0.00 0.00 20 1010.3
20260502163504 53 21 4.0 11.0 0.00 0.00 0.00 20 1010.3
20260502163403 53 22 4.0 11.0 0.00 0.00 0.00 20 1010.3
20260502163303 54 27 4.0 10.0 0.00 0.00 0.00 20 1010.2
20260502163203 54 25 4.0 10.0 0.00 0.00 0.00 20 1010.2
20260502163103 54 25 4.0 10.0 0.00 0.00 0.00 20 1010.3
20260502163003 54 24 3.0 10.0 0.00 0.00 0.00 19 1010.3
20260502162903 54 22 3.0 10.0 0.00 0.00 0.00 19 1010.3
20260502162803 54 21 2.0 10.0 0.00 0.00 0.00 18 1010.3
20260502162703 54 21 2.0 9.0 0.00 0.00 0.00 18 1010.3
20260502162603 54 19 3.0 12.0 0.00 0.00 0.00 18 1010.3
20260502162503 54 19 3.0 12.0 0.00 0.00 0.00 18 1010.3
20260502162403 54 21 3.0 12.0 0.00 0.00 0.00 18 1010.3
20260502162304 54 21 3.0 12.0 0.00 0.00 0.00 18 1010.4
20260502162203 54 21 3.0 12.0 0.00 0.00 0.00 18 1010.4
20260502162103 53 21 4.0 12.0 0.00 0.00 0.00 19 1010.3
20260502162003 53 21 4.0 12.0 0.00 0.00 0.00 19 1010.3
20260502161903 53 22 4.0 12.0 0.00 0.00 0.00 19 1010.3
20260502161803 53 22 5.0 12.0 0.00 0.00 0.00 19 1010.3
20260502161703 54 23 4.0 12.0 0.00 0.00 0.00 19 1010.3
20260502161603 54 25 3.0 10.0 0.00 0.00 0.00 18 1010.3
20260502161503 54 26 3.0 10.0 0.00 0.00 0.00 18 1010.3
20260502161403 54 24 2.0 10.0 0.00 0.00 0.00 17 1010.3
20260502161303 54 25 1.0 10.0 0.00 0.00 0.00 17 1010.3
20260502161203 54 25 1.0 8.0 0.00 0.00 0.00 16 1010.3
20260502161103 54 25 1.0 8.0 0.00 0.00 0.00 16 1010.3
20260502161003 54 25 1.0 8.0 0.00 0.00 0.00 16 1010.3
20260502160903 54 25 0.0 8.0 0.00 0.00 0.00 16 1010.3
20260502160803 54 24 0.0 5.0 0.00 0.00 0.00 15 1010.3
20260502160703 54 360 0.0 1.0 0.00 0.00 0.00 15 1010.1
20260502160603 54 0 0.0 0.0 0.00 0.00 0.00 15 1010.1
20260502160503 54 0 0.0 0.0 0.00 0.00 0.00 15 1010.1
20260502160424 54 0 0.0 0.0 0.00 0.00 0.00 15 1010.1
20260502160324 54 0 0.0 0.0 0.00 0.00 0.00 15 1010.1
20260502160224 54 0 0.0 0.0 0.00 0.00 0.00 15 1010.2
20260502160124 54 0 0.0 0.0 0.00 0.00 0.00 15 1010.2
20260502152305 54 355 1.0 7.0 0.00 0.00 0.00 7 1010.3
20260502152203 54 355 2.0 8.0 0.00 0.00 0.00 7 1010.3
20260502152103 54 355 2.0 8.0 0.00 0.00 0.00 7 1010.3
20260502152003 54 355 2.0 8.0 0.00 0.00 0.00 7 1010.3
20260502151903 53 355 1.0 8.0 0.00 0.00 0.00 6 1010.3
20260502151803 53 355 1.0 8.0 0.00 0.00 0.00 7 1010.3
20260502151703 53 355 1.0 8.0 0.00 0.00 0.00 7 1010.4
20260502151603 53 355 1.0 8.0 0.00 0.00 0.00 7 1010.4
20260502151503 53 355 1.0 8.0 0.00 0.00 0.00 6 1010.4
20260502151424 53 355 1.0 8.0 0.00 0.00 0.00 6 1010.4
20260502151324 53 355 0.0 8.0 0.00 0.00 0.00 6 1010.4
20260502151224 53 355 0.0 4.0 0.00 0.00 0.00 6 1010.4
20260502151124 53 355 0.0 4.0 0.00 0.00 0.00 5 1010.4
20260502151024 53 355 0.0 4.0 0.00 0.00 0.00 5 1010.3
20260502150903 53 355 1.0 6.0 0.00 0.00 0.00 6 1010.3
20260502150803 53 355 1.0 8.0 0.00 0.00 0.00 6 1010.3
20260502150703 53 355 1.0 8.0 0.00 0.00 0.00 6 1010.3
20260502150603 53 355 1.0 8.0 0.00 0.00 0.00 6 1010.5
20260502150503 53 355 1.0 8.0 0.00 0.00 0.00 5 1010.5
20260502150403 53 355 1.0 8.0 0.00 0.00 0.00 6 1010.4
20260502150303 53 355 1.0 8.0 0.00 0.00 0.00 5 1010.4
20260502150203 53 355 1.0 8.0 0.00 0.00 0.00 5 1010.5
20260502150103 53 355 1.0 8.0 0.00 0.00 0.00 5 1010.5
20260502130703 62 0 0.0 0.0 0.00 0.00 0.00 40 1010.6
20260502130624 62 0 0.0 0.0 0.00 0.00 0.00 40 1010.6
20260502130524 62 0 0.0 0.0 0.00 0.00 0.00 40 1010.6
20260502130424 62 0 0.0 0.0 0.00 0.00 0.00 40 1010.4
20260502130324 62 0 0.0 0.0 0.00 0.00 0.00 40 1010.4
20260502130224 62 0 0.0 0.0 0.00 0.00 0.00 40 1010.5
20260502130103 62 0 0.0 0.0 0.00 0.00 0.00 40 1010.4
20260502123803 62 0 0.0 0.0 0.00 0.00 0.00 40 1010.2
20260502123703 62 0 0.0 0.0 0.00 0.00 0.00 40 1010.2
20260502123603 62 0 0.0 0.0 0.00 0.00 0.00 40 1010.2
20260502123503 62 0 0.0 0.0 0.00 0.00 0.00 40 1010.2
20260502123403 62 0 0.0 0.0 0.00 0.00 0.00 40 1010.2
20260502123303 62 0 0.0 0.0 0.00 0.00 0.00 40 1010.3
20260502123203 62 0 0.0 0.0 0.00 0.00 0.00 40 1010.3
20260502123103 62 0 0.0 0.0 0.00 0.00 0.00 40 1010.3
20260502123003 62 0 0.0 0.0 0.00 0.00 0.00 40 1010.3
20260502122903 62 0 0.0 0.0 0.00 0.00 0.00 40 1010.3
20260502122803 62 0 0.0 0.0 0.00 0.00 0.00 40 1010.3
20260502122703 62 0 0.0 0.0 0.00 0.00 0.00 40 1010.3
20260502122603 62 0 0.0 0.0 0.00 0.00 0.00 40 1010.3
20260502122503 62 0 0.0 0.0 0.00 0.00 0.00 40 1010.3
20260502122403 62 0 0.0 0.0 0.00 0.00 0.00 40 1010.3
20260502122305 62 0 0.0 0.0 0.00 0.00 0.00 40 1010.3
20260502122203 62 0 0.0 0.0 0.00 0.00 0.00 40 1010.5
20260502122103 62 0 0.0 0.0 0.00 0.00 0.00 40 1010.5
20260502122003 62 0 0.0 0.0 0.00 0.00 0.00 40 1010.5
20260502121903 62 0 0.0 0.0 0.00 0.00 0.00 40 1010.5
20260502121803 62 0 0.0 0.0 0.00 0.00 0.00 40 1010.5
20260502121703 62 0 0.0 0.0 0.00 0.00 0.00 40 1010.5
20260502121603 62 0 0.0 0.0 0.00 0.00 0.00 40 1010.5
20260502121503 62 0 0.0 0.0 0.00 0.00 0.00 40 1010.6
20260502121403 62 0 0.0 0.0 0.00 0.00 0.00 40 1010.6
20260502121303 62 0 0.0 0.0 0.00 0.00 0.00 40 1010.6
20260502121203 62 0 0.0 0.0 0.00 0.00 0.00 40 1010.6
20260502121103 62 0 0.0 0.0 0.00 0.00 0.00 40 1010.5
20260502121003 62 0 0.0 0.0 0.00 0.00 0.00 40 1010.5
20260502120903 62 0 0.0 0.0 0.00 0.00 0.00 40 1010.5
20260502120803 62 0 0.0 0.0 0.00 0.00 0.00 40 1010.5
20260502120703 62 0 0.0 0.0 0.00 0.00 0.00 40 1010.5
20260502120603 62 0 0.0 0.0 0.00 0.00 0.00 40 1010.4
20260502120503 62 0 0.0 0.0 0.00 0.00 0.00 40 1010.4
20260502120403 62 0 0.0 0.0 0.00 0.00 0.00 40 1010.5
20260502120303 62 0 0.0 0.0 0.00 0.00 0.00 40 1010.5
20260502120203 62 0 0.0 0.0 0.00 0.00 0.00 40 1010.5
20260502115903 62 0 0.0 0.0 0.00 0.00 0.00 40 1010.6
20260502115803 62 0 0.0 0.0 0.00 0.00 0.00 40 1010.6
20260502115703 62 0 0.0 0.0 0.00 0.00 0.00 40 1010.6
20260502115603 62 0 0.0 0.0 0.00 0.00 0.00 40 1010.6
20260502115503 62 0 0.0 0.0 0.00 0.00 0.00 40 1010.6
20260502115403 62 0 0.0 0.0 0.00 0.00 0.00 40 1010.6
20260502115306 62 0 0.0 0.0 0.00 0.00 0.00 40 1010.6
20260502115203 62 0 0.0 0.0 0.00 0.00 0.00 40 1010.6
20260502115103 62 0 0.0 0.0 0.00 0.00 0.00 40 1010.6
20260502115003 62 0 0.0 0.0 0.00 0.00 0.00 40 1010.6
20260502114903 62 0 0.0 0.0 0.00 0.00 0.00 40 1010.6
20260502114803 62 0 0.0 0.0 0.00 0.00 0.00 40 1010.6
20260502114703 62 0 0.0 0.0 0.00 0.00 0.00 40 1010.6
20260502114503 62 0 0.0 0.0 0.00 0.00 0.00 40 1010.6
20260502114403 62 0 0.0 0.0 0.00 0.00 0.00 40 1010.6
20260502114203 62 0 0.0 0.0 0.00 0.00 0.00 40 1010.6
20260502114103 62 0 0.0 0.0 0.00 0.00 0.00 40 1010.6
20260502114003 62 0 0.0 0.0 0.00 0.00 0.00 40 1010.7
20260502113903 62 0 0.0 0.0 0.00 0.00 0.00 40 1010.7
20260502113803 62 0 0.0 0.0 0.00 0.00 0.00 40 1010.6
20260502113703 62 0 0.0 0.0 0.00 0.00 0.00 40 1010.6
20260502113603 62 0 0.0 0.0 0.00 0.00 0.00 40 1010.6
20260502113503 62 0 0.0 0.0 0.00 0.00 0.00 40 1010.6
20260502113403 62 0 0.0 0.0 0.00 0.00 0.00 40 1010.6
20260502113303 62 0 0.0 0.0 0.00 0.00 0.00 40 1010.6
20260502113224 62 0 0.0 0.0 0.00 0.00 0.00 40 1010.6
20260502113103 62 0 0.0 0.0 0.00 0.00 0.00 40 1010.6
20260502113003 62 0 0.0 0.0 0.00 0.00 0.00 40 1010.5
20260502112903 62 0 0.0 0.0 0.00 0.00 0.00 40 1010.5
20260502112803 62 0 0.0 0.0 0.00 0.00 0.00 40 1010.5
20260502112703 62 0 0.0 0.0 0.00 0.00 0.00 40 1010.4
20260502112603 62 0 0.0 0.0 0.00 0.00 0.00 40 1010.4
20260502112503 62 0 0.0 0.0 0.00 0.00 0.00 40 1010.4
20260502112403 62 0 0.0 0.0 0.00 0.00 0.00 40 1010.4
20260502112305 62 0 0.0 0.0 0.00 0.00 0.00 40 1010.4
20260502112203 62 0 0.0 0.0 0.00 0.00 0.00 40 1010.3
20260502112103 62 0 0.0 0.0 0.00 0.00 0.00 40 1010.3
20260502112003 62 0 0.0 0.0 0.00 0.00 0.00 40 1010.3
20260502111903 62 0 0.0 0.0 0.00 0.00 0.00 40 1010.3
20260502111803 62 0 0.0 0.0 0.00 0.00 0.00 40 1010.3
20260502111703 62 0 0.0 0.0 0.00 0.00 0.00 40 1010.3
20260502111603 62 0 0.0 0.0 0.00 0.00 0.00 40 1010.3
20260502111503 62 0 0.0 0.0 0.00 0.00 0.00 40 1010.2
20260502111403 62 0 0.0 0.0 0.00 0.00 0.00 40 1010.2
20260502111303 62 0 0.0 0.0 0.00 0.00 0.00 40 1010.2
20260502111203 62 0 0.0 0.0 0.00 0.00 0.00 40 1010.2
20260502111103 62 0 0.0 0.0 0.00 0.00 0.00 40 1010.2
20260502111003 62 0 0.0 0.0 0.00 0.00 0.00 40 1010.2
20260502110903 62 0 0.0 0.0 0.00 0.00 0.00 40 1010.2
20260502110803 62 0 0.0 0.0 0.00 0.00 0.00 40 1010.2
20260502110703 62 0 0.0 0.0 0.00 0.00 0.00 40 1010.1
20260502110603 62 0 0.0 0.0 0.00 0.00 0.00 40 1010.2
20260502110503 62 0 0.0 0.0 0.00 0.00 0.00 40 1010.2
20260502110403 62 0 0.0 0.0 0.00 0.00 0.00 40 1010.2
20260502110303 62 0 0.0 0.0 0.00 0.00 0.00 40 1010.2
20260502110203 62 0 0.0 0.0 0.00 0.00 0.00 40 1010.2
20260502110103 62 0 0.0 0.0 0.00 0.00 0.00 40 1010.3
20260502110003 62 0 0.0 0.0 0.00 0.00 0.00 40 1010.3
20260502105903 62 0 0.0 0.0 0.00 0.00 0.00 40 1010.2
20260502105803 62 0 0.0 0.0 0.00 0.00 0.00 40 1010.2
20260502105703 62 0 0.0 0.0 0.00 0.00 0.00 40 1010.3
20260502105603 62 0 0.0 0.0 0.00 0.00 0.00 40 1010.3
20260502105503 62 0 0.0 0.0 0.00 0.00 0.00 40 1010.2
20260502105403 62 0 0.0 0.0 0.00 0.00 0.00 40 1010.2
20260502105306 62 0 0.0 0.0 0.00 0.00 0.00 40 1010.2
20260502105203 62 0 0.0 0.0 0.00 0.00 0.00 40 1010.2
20260502105124 62 0 0.0 0.0 0.00 0.00 0.00 40 1010.1
20260502105024 62 0 0.0 0.0 0.00 0.00 0.00 40 1010.1
20260502104924 62 0 0.0 0.0 0.00 0.00 0.00 40 1010.1
20260502104824 62 0 0.0 0.0 0.00 0.00 0.00 40 1010.1
20260502104724 62 0 0.0 0.0 0.00 0.00 0.00 40 1010.1
20260502104603 62 0 0.0 0.0 0.00 0.00 0.00 40 1010.1
20260502104503 62 0 0.0 0.0 0.00 0.00 0.00 40 1010.0
20260502104403 62 0 0.0 0.0 0.00 0.00 0.00 40 1010.0
20260502104303 62 0 0.0 0.0 0.00 0.00 0.00 40 1010.0
20260502104203 62 0 0.0 0.0 0.00 0.00 0.00 40 1009.9
20260502104103 62 0 0.0 0.0 0.00 0.00 0.00 40 1009.9
20260502104003 62 0 0.0 0.0 0.00 0.00 0.00 40 1009.9
20260502103903 62 0 0.0 0.0 0.00 0.00 0.00 40 1009.9
20260502103803 62 0 0.0 0.0 0.00 0.00 0.00 40 1009.9
20260502103703 62 0 0.0 0.0 0.00 0.00 0.00 40 1010.0
20260502103603 62 0 0.0 0.0 0.00 0.00 0.00 40 1010.0
20260502103503 62 0 0.0 0.0 0.00 0.00 0.00 40 1010.0
20260502103403 62 0 0.0 0.0 0.00 0.00 0.00 40 1010.0
20260502103303 62 0 0.0 0.0 0.00 0.00 0.00 40 1009.9
20260502103203 62 0 0.0 0.0 0.00 0.00 0.00 40 1009.9
20260502103103 62 0 0.0 0.0 0.00 0.00 0.00 40 1009.9
20260502103003 62 0 0.0 0.0 0.00 0.00 0.00 40 1009.9
20260502102903 62 0 0.0 0.0 0.00 0.00 0.00 40 1009.9
20260502102803 62 0 0.0 0.0 0.00 0.00 0.00 40 1009.9
20260502102703 62 0 0.0 0.0 0.00 0.00 0.00 40 1009.9
20260502102603 62 0 0.0 0.0 0.00 0.00 0.00 40 1009.9
20260502102503 62 0 0.0 0.0 0.00 0.00 0.00 40 1009.9
20260502102403 62 0 0.0 0.0 0.00 0.00 0.00 40 1010.0
20260502102306 62 0 0.0 0.0 0.00 0.00 0.00 40 1010.0
20260502102203 62 0 0.0 0.0 0.00 0.00 0.00 40 1010.0
20260502102124 62 0 0.0 0.0 0.00 0.00 0.00 40 1010.0
20260502102024 62 0 0.0 0.0 0.00 0.00 0.00 40 1010.0
20260502101924 62 0 0.0 0.0 0.00 0.00 0.00 40 1010.0
20260502101824 62 0 0.0 0.0 0.00 0.00 0.00 40 1010.0
20260502101724 62 0 0.0 0.0 0.00 0.00 0.00 40 1010.0
20260502101624 62 0 0.0 0.0 0.00 0.00 0.00 40 1010.0
20260502101503 62 0 0.0 0.0 0.00 0.00 0.00 40 1010.1
20260502101403 62 0 0.0 0.0 0.00 0.00 0.00 40 1010.0
20260502101303 62 0 0.0 0.0 0.00 0.00 0.00 40 1010.0
20260502101203 62 0 0.0 0.0 0.00 0.00 0.00 40 1010.0
20260502101124 62 0 0.0 0.0 0.00 0.00 0.00 40 1010.0
20260502101003 62 0 0.0 0.0 0.00 0.00 0.00 40 1009.9
20260502100903 62 0 0.0 0.0 0.00 0.00 0.00 40 1009.6
20260502100803 62 0 0.0 0.0 0.00 0.00 0.00 40 1009.6
20260502100703 62 0 0.0 0.0 0.00 0.00 0.00 40 1009.6
20260502100603 62 0 0.0 0.0 0.00 0.00 0.00 40 1009.6
20260502100503 62 0 0.0 0.0 0.00 0.00 0.00 40 1009.6
20260502100403 62 0 0.0 0.0 0.00 0.00 0.00 40 1009.5
20260502100303 62 0 0.0 0.0 0.00 0.00 0.00 40 1009.5
20260502100203 62 0 0.0 0.0 0.00 0.00 0.00 40 1009.5
20260502100103 62 0 0.0 0.0 0.00 0.00 0.00 40 1009.7
20260502091503 62 0 0.0 0.0 0.00 0.00 0.00 40 1009.7
20260502091403 62 0 0.0 0.0 0.00 0.00 0.00 40 1009.8
20260502091303 62 0 0.0 0.0 0.00 0.00 0.00 40 1009.8
20260502091203 62 0 0.0 0.0 0.00 0.00 0.00 40 1009.8
20260502091103 62 0 0.0 0.0 0.00 0.00 0.00 40 1009.8
20260502091003 62 0 0.0 0.0 0.00 0.00 0.00 40 1009.8
20260502090903 62 0 0.0 0.0 0.00 0.00 0.00 40 1009.7
20260502090803 62 0 0.0 0.0 0.00 0.00 0.00 40 1009.8
20260502090703 62 0 0.0 0.0 0.00 0.00 0.00 40 1009.8
20260502090603 62 0 0.0 0.0 0.00 0.00 0.00 40 1009.8
20260502090503 62 0 0.0 0.0 0.00 0.00 0.00 40 1009.8
20260502090403 62 0 0.0 0.0 0.00 0.00 0.00 40 1009.7
20260502090303 62 0 0.0 0.0 0.00 0.00 0.00 40 1009.7
20260502090203 62 0 0.0 0.0 0.00 0.00 0.00 40 1009.7
20260502071503 62 0 0.0 0.0 0.00 0.00 0.00 40 1010.1
20260502071403 62 0 0.0 0.0 0.00 0.00 0.00 40 1010.1
20260502071303 62 0 0.0 0.0 0.00 0.00 0.00 40 1010.1
20260502071203 62 0 0.0 0.0 0.00 0.00 0.00 40 1010.1
20260502071103 62 0 0.0 0.0 0.00 0.00 0.00 40 1010.0
20260502071003 62 0 0.0 0.0 0.00 0.00 0.00 40 1010.0
20260502070903 62 0 0.0 0.0 0.00 0.00 0.00 40 1010.0
20260502070803 62 0 0.0 0.0 0.00 0.00 0.00 40 1010.0
20260502070703 62 0 0.0 0.0 0.00 0.00 0.00 40 1010.0
20260502070603 62 0 0.0 0.0 0.00 0.00 0.00 40 1009.9
20260502070503 62 0 0.0 0.0 0.00 0.00 0.00 40 1009.9
20260502070403 62 0 0.0 0.0 0.00 0.00 0.00 40 1009.9
20260502070303 62 0 0.0 0.0 0.00 0.00 0.00 40 1009.9
20260502070203 62 0 0.0 0.0 0.00 0.00 0.00 40 1009.9
20260502070004 62 0 0.0 0.0 0.00 0.00 0.00 40 1010.0
20260502065903 62 0 0.0 0.0 0.00 0.00 0.00 40 1010.1
20260502065803 62 0 0.0 0.0 0.00 0.00 0.00 40 1010.1
20260502065703 62 0 0.0 0.0 0.00 0.00 0.00 40 1010.0
20260502065603 62 0 0.0 0.0 0.00 0.00 0.00 40 1010.1
20260502065503 62 0 0.0 0.0 0.00 0.00 0.00 40 1010.0
20260502065403 62 0 0.0 0.0 0.00 0.00 0.00 40 1010.0
20260502065306 62 0 0.0 0.0 0.00 0.00 0.00 40 1010.0
20260502065203 62 0 0.0 0.0 0.00 0.00 0.00 40 1010.0
20260502065103 62 0 0.0 0.0 0.00 0.00 0.00 40 1010.0
20260502065003 62 0 0.0 0.0 0.00 0.00 0.00 40 1010.0
20260502064903 62 0 0.0 0.0 0.00 0.00 0.00 40 1010.0
20260502064803 62 0 0.0 0.0 0.00 0.00 0.00 40 1010.0
20260502064703 62 0 0.0 0.0 0.00 0.00 0.00 40 1010.0
20260502064603 62 0 0.0 0.0 0.00 0.00 0.00 40 1010.0
20260502064503 62 0 0.0 0.0 0.00 0.00 0.00 40 1010.1
20260502064403 62 0 0.0 0.0 0.00 0.00 0.00 40 1010.1
20260502064303 62 0 0.0 0.0 0.00 0.00 0.00 40 1010.1
20260502064203 62 0 0.0 0.0 0.00 0.00 0.00 40 1010.1
20260502064103 62 0 0.0 0.0 0.00 0.00 0.00 40 1010.1
20260502064003 62 0 0.0 0.0 0.00 0.00 0.00 40 1010.1
20260502063903 62 0 0.0 0.0 0.00 0.00 0.00 40 1010.1
20260502063803 62 0 0.0 0.0 0.00 0.00 0.00 40 1010.1
20260502063703 62 0 0.0 0.0 0.00 0.00 0.00 40 1010.1
20260502063603 62 0 0.0 0.0 0.00 0.00 0.00 40 1010.1
20260502063503 62 0 0.0 0.0 0.00 0.00 0.00 40 1010.1
20260502063403 62 0 0.0 0.0 0.00 0.00 0.00 40 1010.1
20260502063324 62 0 0.0 0.0 0.00 0.00 0.00 40 1010.1
20260502063224 62 0 0.0 0.0 0.00 0.00 0.00 40 1010.1
20260502063124 62 0 0.0 0.0 0.00 0.00 0.00 40 1010.1
20260502063024 62 0 0.0 0.0 0.00 0.00 0.00 40 1010.1
20260502062903 62 0 0.0 0.0 0.00 0.00 0.00 40 1010.0
20260502062803 62 0 0.0 0.0 0.00 0.00 0.00 40 1010.0
20260502062703 62 0 0.0 0.0 0.00 0.00 0.00 40 1010.0
20260502062603 62 0 0.0 0.0 0.00 0.00 0.00 40 1010.0
20260502062503 62 0 0.0 0.0 0.00 0.00 0.00 40 1010.0
20260502062403 62 0 0.0 0.0 0.00 0.00 0.00 40 1009.9
20260502062306 62 0 0.0 0.0 0.00 0.00 0.00 40 1009.9
20260502062203 62 0 0.0 0.0 0.00 0.00 0.00 40 1009.9
20260502062103 62 0 0.0 0.0 0.00 0.00 0.00 40 1009.9
20260502062003 62 0 0.0 0.0 0.00 0.00 0.00 40 1009.9
20260502061903 62 0 0.0 0.0 0.00 0.00 0.00 40 1009.9
20260502061803 62 0 0.0 0.0 0.00 0.00 0.00 40 1009.9
20260502061724 62 0 0.0 0.0 0.00 0.00 0.00 40 1010.0
20260502061624 62 0 0.0 0.0 0.00 0.00 0.00 40 1010.0
20260502061524 62 0 0.0 0.0 0.00 0.00 0.00 40 1010.0
20260502061424 62 0 0.0 0.0 0.00 0.00 0.00 40 1010.0
20260502061324 62 0 0.0 0.0 0.00 0.00 0.00 40 1010.1
20260502061203 62 0 0.0 0.0 0.00 0.00 0.00 40 1010.1
20260502061103 62 0 0.0 0.0 0.00 0.00 0.00 40 1010.1
20260502061003 62 0 0.0 0.0 0.00 0.00 0.00 40 1010.1
20260502060903 62 0 0.0 0.0 0.00 0.00 0.00 40 1010.1
20260502060803 62 0 0.0 0.0 0.00 0.00 0.00 40 1010.1
20260502060724 62 0 0.0 0.0 0.00 0.00 0.00 40 1010.1
20260502060624 62 0 0.0 0.0 0.00 0.00 0.00 40 1010.1
20260502060524 62 0 0.0 0.0 0.00 0.00 0.00 40 1010.0
20260502060424 62 0 0.0 0.0 0.00 0.00 0.00 40 1010.0
20260502060324 62 0 0.0 0.0 0.00 0.00 0.00 40 1010.0
20260502060203 62 0 0.0 0.0 0.00 0.00 0.00 40 1009.9
20260502060003 62 0 0.0 0.0 0.00 0.00 0.00 40 1010.0
20260502055903 62 0 0.0 0.0 0.00 0.00 0.00 40 1010.0
20260502055803 62 0 0.0 0.0 0.00 0.00 0.00 40 1010.0
20260502055703 62 0 0.0 0.0 0.00 0.00 0.00 40 1010.0
20260502055603 62 0 0.0 0.0 0.00 0.00 0.00 40 1010.1
20260502055503 62 0 0.0 0.0 0.00 0.00 0.00 40 1010.2
20260502055403 62 0 0.0 0.0 0.00 0.00 0.00 40 1010.2
20260502055305 62 0 0.0 0.0 0.00 0.00 0.00 40 1010.2
20260502055203 62 0 0.0 0.0 0.00 0.00 0.00 40 1010.2
20260502055103 62 0 0.0 0.0 0.00 0.00 0.00 40 1010.2
20260502055003 62 0 0.0 0.0 0.00 0.00 0.00 40 1010.1
20260502054903 62 0 0.0 0.0 0.00 0.00 0.00 40 1010.1
20260502054803 62 0 0.0 0.0 0.00 0.00 0.00 40 1010.2
20260502054703 62 0 0.0 0.0 0.00 0.00 0.00 40 1010.2
20260502054603 62 0 0.0 0.0 0.00 0.00 0.00 40 1010.1
20260502054503 62 0 0.0 0.0 0.00 0.00 0.00 40 1010.1
20260502054403 62 0 0.0 0.0 0.00 0.00 0.00 40 1010.1
20260502054303 62 0 0.0 0.0 0.00 0.00 0.00 40 1010.1
20260502054203 62 0 0.0 0.0 0.00 0.00 0.00 40 1010.1
20260502054103 62 0 0.0 0.0 0.00 0.00 0.00 40 1010.1
20260502054003 62 0 0.0 0.0 0.00 0.00 0.00 40 1010.1
20260502053903 62 0 0.0 0.0 0.00 0.00 0.00 40 1010.1
20260502053803 62 0 0.0 0.0 0.00 0.00 0.00 40 1010.1
20260502053703 62 0 0.0 0.0 0.00 0.00 0.00 40 1010.1
20260502053603 62 0 0.0 0.0 0.00 0.00 0.00 40 1010.1
20260502053503 62 0 0.0 0.0 0.00 0.00 0.00 40 1010.1
20260502053405 62 0 0.0 0.0 0.00 0.00 0.00 40 1010.1
20260502053304 62 0 0.0 0.0 0.00 0.00 0.00 40 1010.1
20260502053204 62 0 0.0 0.0 0.00 0.00 0.00 40 1010.0
20260502053104 62 0 0.0 0.0 0.00 0.00 0.00 40 1010.0
20260502053004 62 0 0.0 0.0 0.00 0.00 0.00 40 1010.0
20260502052904 62 0 0.0 0.0 0.00 0.00 0.00 40 1010.0
20260502052804 62 0 0.0 0.0 0.00 0.00 0.00 40 1010.0
20260502052704 62 0 0.0 0.0 0.00 0.00 0.00 40 1010.2
20260502052604 62 0 0.0 0.0 0.00 0.00 0.00 40 1010.2
20260502052504 62 0 0.0 0.0 0.00 0.00 0.00 40 1010.2
20260502052404 62 0 0.0 0.0 0.00 0.00 0.00 40 1010.2
20260502052306 62 0 0.0 0.0 0.00 0.00 0.00 40 1010.2
20260502052204 62 0 0.0 0.0 0.00 0.00 0.00 40 1010.2
20260502052104 62 0 0.0 0.0 0.00 0.00 0.00 40 1010.2
20260502052004 62 0 0.0 0.0 0.00 0.00 0.00 40 1010.2
20260502051904 62 0 0.0 0.0 0.00 0.00 0.00 40 1010.3
20260502051804 62 0 0.0 0.0 0.00 0.00 0.00 40 1010.3
20260502051704 62 0 0.0 0.0 0.00 0.00 0.00 40 1010.3
20260502051604 62 0 0.0 0.0 0.00 0.00 0.00 40 1010.3
20260502051504 62 0 0.0 0.0 0.00 0.00 0.00 40 1010.3
20260502051404 62 0 0.0 0.0 0.00 0.00 0.00 40 1010.3
20260502051304 62 0 0.0 0.0 0.00 0.00 0.00 40 1010.3
20260502051204 62 0 0.0 0.0 0.00 0.00 0.00 40 1010.4
20260502051105 62 0 0.0 0.0 0.00 0.00 0.00 40 1010.3
20260502051005 62 0 0.0 0.0 0.00 0.00 0.00 40 1010.3
20260502050905 62 0 0.0 0.0 0.00 0.00 0.00 40 1010.2
20260502050805 62 0 0.0 0.0 0.00 0.00 0.00 40 1010.2
20260502050705 62 0 0.0 0.0 0.00 0.00 0.00 40 1010.2
20260502050605 62 0 0.0 0.0 0.00 0.00 0.00 40 1010.2
20260502050505 62 0 0.0 0.0 0.00 0.00 0.00 40 1010.2
20260502050405 62 0 0.0 0.0 0.00 0.00 0.00 40 1010.1
20260502050305 62 0 0.0 0.0 0.00 0.00 0.00 40 1010.1
20260502050205 62 0 0.0 0.0 0.00 0.00 0.00 40 1010.1
20260502050105 62 0 0.0 0.0 0.00 0.00 0.00 40 1010.1
20260502050005 62 0 0.0 0.0 0.00 0.00 0.00 40 1010.1
20260502045905 62 0 0.0 0.0 0.00 0.00 0.00 40 1010.1
20260502045805 62 0 0.0 0.0 0.00 0.00 0.00 40 1010.1
20260502045705 62 0 0.0 0.0 0.00 0.00 0.00 40 1010.1
20260502045605 62 0 0.0 0.0 0.00 0.00 0.00 40 1010.1
20260502045504 62 0 0.0 0.0 0.00 0.00 0.00 40 1010.1
20260502045404 62 0 0.0 0.0 0.00 0.00 0.00 40 1010.1
20260502045306 62 0 0.0 0.0 0.00 0.00 0.00 40 1010.1
20260502045204 62 0 0.0 0.0 0.00 0.00 0.00 40 1010.1
20260502045105 62 0 0.0 0.0 0.00 0.00 0.00 40 1010.1
20260502045004 62 0 0.0 0.0 0.00 0.00 0.00 40 1010.1
20260502044904 62 0 0.0 0.0 0.00 0.00 0.00 40 1010.1
20260502044805 62 0 0.0 0.0 0.00 0.00 0.00 40 1010.1
20260502044705 62 0 0.0 0.0 0.00 0.00 0.00 40 1010.1
20260502044604 62 0 0.0 0.0 0.00 0.00 0.00 40 1010.0
20260502044505 62 0 0.0 0.0 0.00 0.00 0.00 40 1010.0
20260502044404 62 0 0.0 0.0 0.00 0.00 0.00 40 1010.0
20260502044304 62 0 0.0 0.0 0.00 0.00 0.00 40 1010.0
20260502044205 62 0 0.0 0.0 0.00 0.00 0.00 40 1009.9
20260502044104 62 0 0.0 0.0 0.00 0.00 0.00 40 1009.9
20260502044025 62 0 0.0 0.0 0.00 0.00 0.00 40 1009.7
20260502043925 62 0 0.0 0.0 0.00 0.00 0.00 40 1009.7
20260502043825 62 0 0.0 0.0 0.00 0.00 0.00 40 1009.7
20260502043725 62 0 0.0 0.0 0.00 0.00 0.00 40 1009.7
20260502043604 62 0 0.0 0.0 0.00 0.00 0.00 40 1009.9
20260502043525 62 0 0.0 0.0 0.00 0.00 0.00 40 1009.9
20260502043425 62 0 0.0 0.0 0.00 0.00 0.00 40 1009.9
20260502043325 62 0 0.0 0.0 0.00 0.00 0.00 40 1010.0
20260502043225 62 0 0.0 0.0 0.00 0.00 0.00 40 1010.0
20260502043125 62 0 0.0 0.0 0.00 0.00 0.00 40 1010.2
20260502043005 62 0 0.0 0.0 0.00 0.00 0.00 40 1010.2
20260502042904 62 0 0.0 0.0 0.00 0.00 0.00 40 1010.2
20260502042804 62 0 0.0 0.0 0.00 0.00 0.00 40 1010.2
20260502042704 62 0 0.0 0.0 0.00 0.00 0.00 40 1010.3
20260502042604 62 0 0.0 0.0 0.00 0.00 0.00 40 1010.3
20260502042505 62 0 0.0 0.0 0.00 0.00 0.00 40 1010.3
20260502042404 62 0 0.0 0.0 0.00 0.00 0.00 40 1010.3
20260502042306 62 0 0.0 0.0 0.00 0.00 0.00 40 1010.3
20260502042205 62 0 0.0 0.0 0.00 0.00 0.00 40 1010.2
20260502042105 62 0 0.0 0.0 0.00 0.00 0.00 40 1010.2
20260502042004 62 0 0.0 0.0 0.00 0.00 0.00 40 1010.2
20260502041904 62 0 0.0 0.0 0.00 0.00 0.00 40 1010.1
20260502041804 62 0 0.0 0.0 0.00 0.00 0.00 40 1010.1
20260502041704 62 0 0.0 0.0 0.00 0.00 0.00 40 1010.1
20260502041604 62 0 0.0 0.0 0.00 0.00 0.00 40 1010.1
20260502041504 62 0 0.0 0.0 0.00 0.00 0.00 40 1010.0
20260502041404 62 0 0.0 0.0 0.00 0.00 0.00 40 1009.9
20260502041304 62 0 0.0 0.0 0.00 0.00 0.00 40 1009.9
20260502041204 62 0 0.0 0.0 0.00 0.00 0.00 40 1010.0
20260502041104 62 0 0.0 0.0 0.00 0.00 0.00 40 1010.0
20260502041004 62 0 0.0 0.0 0.00 0.00 0.00 40 1010.1
20260502040904 62 0 0.0 0.0 0.00 0.00 0.00 40 1010.0
20260502040804 62 0 0.0 0.0 0.00 0.00 0.00 40 1010.0
20260502040704 62 0 0.0 0.0 0.00 0.00 0.00 40 1010.0
20260502040605 62 0 0.0 0.0 0.00 0.00 0.00 40 1010.0
20260502040504 62 0 0.0 0.0 0.00 0.00 0.00 40 1010.0
20260502040404 62 0 0.0 0.0 0.00 0.00 0.00 40 1010.0
20260502040304 62 0 0.0 0.0 0.00 0.00 0.00 40 1010.0
20260502040204 62 0 0.0 0.0 0.00 0.00 0.00 40 1010.0
20260502040104 62 0 0.0 0.0 0.00 0.00 0.00 40 1010.0
20260502040006 62 0 0.0 0.0 0.00 0.00 0.00 40 1010.0
20260502035904 62 0 0.0 0.0 0.00 0.00 0.00 40 1010.0
20260502035804 62 0 0.0 0.0 0.00 0.00 0.00 40 1010.0
20260502035704 62 0 0.0 0.0 0.00 0.00 0.00 40 1010.1
20260502035604 62 0 0.0 0.0 0.00 0.00 0.00 40 1010.1
20260502035504 62 0 0.0 0.0 0.00 0.00 0.00 40 1010.1
20260502035404 62 0 0.0 0.0 0.00 0.00 0.00 40 1010.1
20260502035306 62 0 0.0 0.0 0.00 0.00 0.00 40 1010.1
20260502035204 62 0 0.0 0.0 0.00 0.00 0.00 40 1010.1
20260502035104 62 0 0.0 0.0 0.00 0.00 0.00 40 1010.0
20260502035004 62 0 0.0 0.0 0.00 0.00 0.00 40 1010.0
20260502034904 62 0 0.0 0.0 0.00 0.00 0.00 40 1010.0
20260502034804 62 0 0.0 0.0 0.00 0.00 0.00 40 1010.0
20260502034704 62 0 0.0 0.0 0.00 0.00 0.00 40 1010.1
20260502034604 62 0 0.0 0.0 0.00 0.00 0.00 40 1010.1
20260502034504 62 0 0.0 0.0 0.00 0.00 0.00 40 1010.0
20260502034404 62 0 0.0 0.0 0.00 0.00 0.00 40 1010.0
20260502034304 62 0 0.0 0.0 0.00 0.00 0.00 40 1010.0
20260502034204 62 0 0.0 0.0 0.00 0.00 0.00 40 1010.1
20260502034104 62 0 0.0 0.0 0.00 0.00 0.00 40 1010.1
20260502034004 62 0 0.0 0.0 0.00 0.00 0.00 40 1010.1
20260502033904 62 0 0.0 0.0 0.00 0.00 0.00 40 1010.1
20260502033804 62 0 0.0 0.0 0.00 0.00 0.00 40 1010.1
20260502033704 62 0 0.0 0.0 0.00 0.00 0.00 40 1010.1
20260502033604 62 0 0.0 0.0 0.00 0.00 0.00 40 1010.1
20260502033504 62 0 0.0 0.0 0.00 0.00 0.00 40 1010.0
20260502033404 62 0 0.0 0.0 0.00 0.00 0.00 40 1010.0
20260502033304 62 0 0.0 0.0 0.00 0.00 0.00 40 1010.0
20260502033204 62 0 0.0 0.0 0.00 0.00 0.00 40 1010.0
20260502033104 62 0 0.0 0.0 0.00 0.00 0.00 40 1010.0
20260502033004 62 0 0.0 0.0 0.00 0.00 0.00 40 1010.0
20260502032905 62 0 0.0 0.0 0.00 0.00 0.00 40 1010.0
20260502032805 62 0 0.0 0.0 0.00 0.00 0.00 40 1010.0
20260502032705 62 0 0.0 0.0 0.00 0.00 0.00 40 1010.0
20260502032604 62 0 0.0 0.0 0.00 0.00 0.00 40 1010.0
20260502032505 62 0 0.0 0.0 0.00 0.00 0.00 40 1010.0
20260502032404 62 0 0.0 0.0 0.00 0.00 0.00 40 1009.9
20260502032306 62 0 0.0 0.0 0.00 0.00 0.00 40 1009.9
20260502032204 62 0 0.0 0.0 0.00 0.00 0.00 40 1010.0
20260502032104 62 0 0.0 0.0 0.00 0.00 0.00 40 1010.0
20260502032004 62 0 0.0 0.0 0.00 0.00 0.00 40 1010.1
20260502031904 62 0 0.0 0.0 0.00 0.00 0.00 40 1010.2
20260502031804 62 0 0.0 0.0 0.00 0.00 0.00 40 1010.2
20260502031704 62 0 0.0 0.0 0.00 0.00 0.00 40 1010.2
20260502031604 62 0 0.0 0.0 0.00 0.00 0.00 40 1010.2
20260502031504 62 0 0.0 0.0 0.00 0.00 0.00 40 1010.3
20260502031404 62 0 0.0 0.0 0.00 0.00 0.00 40 1010.2
20260502031304 62 0 0.0 0.0 0.00 0.00 0.00 40 1010.2
20260502031204 62 0 0.0 0.0 0.00 0.00 0.00 40 1010.2
20260502031104 62 0 0.0 0.0 0.00 0.00 0.00 40 1010.3
20260502031025 62 0 0.0 0.0 0.00 0.00 0.00 40 1010.3
20260502030904 62 0 0.0 0.0 0.00 0.00 0.00 40 1010.2
20260502030804 62 0 0.0 0.0 0.00 0.00 0.00 40 1010.2
20260502030704 62 0 0.0 0.0 0.00 0.00 0.00 40 1010.2
20260502030604 62 0 0.0 0.0 0.00 0.00 0.00 40 1010.2
20260502030504 62 0 0.0 0.0 0.00 0.00 0.00 40 1010.2
20260502030404 62 0 0.0 0.0 0.00 0.00 0.00 40 1010.2
20260502030304 62 0 0.0 0.0 0.00 0.00 0.00 40 1010.2
20260502030204 62 0 0.0 0.0 0.00 0.00 0.00 40 1010.3
20260502030104 62 0 0.0 0.0 0.00 0.00 0.00 40 1010.3
20260502030004 62 0 0.0 0.0 0.00 0.00 0.00 40 1010.3
20260502025904 62 0 0.0 0.0 0.00 0.00 0.00 40 1010.3
20260502025804 62 0 0.0 0.0 0.00 0.00 0.00 40 1010.3
20260502025704 62 0 0.0 0.0 0.00 0.00 0.00 40 1010.3
20260502025604 62 0 0.0 0.0 0.00 0.00 0.00 40 1010.4
20260502025504 62 0 0.0 0.0 0.00 0.00 0.00 40 1010.5
20260502025404 62 0 0.0 0.0 0.00 0.00 0.00 40 1010.5
20260502025306 62 0 0.0 0.0 0.00 0.00 0.00 40 1010.5
20260502025204 62 0 0.0 0.0 0.00 0.00 0.00 40 1010.5
20260502025104 62 0 0.0 0.0 0.00 0.00 0.00 40 1010.5
20260502025004 62 0 0.0 0.0 0.00 0.00 0.00 40 1010.4
20260502024904 62 0 0.0 0.0 0.00 0.00 0.00 40 1010.4
20260502024804 62 0 0.0 0.0 0.00 0.00 0.00 40 1010.4
20260502024704 62 0 0.0 0.0 0.00 0.00 0.00 40 1010.3
20260502024604 62 0 0.0 0.0 0.00 0.00 0.00 40 1010.3
20260502024504 62 0 0.0 0.0 0.00 0.00 0.00 40 1010.3
20260502024405 62 0 0.0 0.0 0.00 0.00 0.00 40 1010.3
20260502024305 62 0 0.0 0.0 0.00 0.00 0.00 40 1010.3
20260502024205 62 0 0.0 0.0 0.00 0.00 0.00 40 1010.3
20260502024104 62 0 0.0 0.0 0.00 0.00 0.00 40 1010.3
20260502024005 62 0 0.0 0.0 0.00 0.00 0.00 40 1010.2
20260502023904 62 0 0.0 0.0 0.00 0.00 0.00 40 1010.2
20260502023804 62 0 0.0 0.0 0.00 0.00 0.00 40 1010.2
20260502023704 62 0 0.0 0.0 0.00 0.00 0.00 40 1010.2
20260502023604 62 0 0.0 0.0 0.00 0.00 0.00 40 1010.2
20260502023504 62 0 0.0 0.0 0.00 0.00 0.00 40 1010.2
20260502023411 62 0 0.0 0.0 0.00 0.00 0.00 40 1010.2
20260502023325 62 0 0.0 0.0 0.00 0.00 0.00 40 1010.2
20260502023225 62 0 0.0 0.0 0.00 0.00 0.00 40 1010.2
20260502023125 62 0 0.0 0.0 0.00 0.00 0.00 40 1010.2
20260502023025 62 0 0.0 0.0 0.00 0.00 0.00 40 1010.2
20260502022925 62 0 0.0 0.0 0.00 0.00 0.00 40 1010.2
20260502022804 62 0 0.0 0.0 0.00 0.00 0.00 40 1010.2
20260502022704 62 0 0.0 0.0 0.00 0.00 0.00 40 1010.3
20260502022604 62 0 0.0 0.0 0.00 0.00 0.00 40 1010.3
20260502022504 62 0 0.0 0.0 0.00 0.00 0.00 40 1010.3
20260502022404 62 0 0.0 0.0 0.00 0.00 0.00 40 1010.3
20260502022325 62 0 0.0 0.0 0.00 0.00 0.00 40 1010.3
20260502022225 62 0 0.0 0.0 0.00 0.00 0.00 40 1010.2
20260502022125 62 0 0.0 0.0 0.00 0.00 0.00 40 1010.2
20260502022025 62 0 0.0 0.0 0.00 0.00 0.00 40 1010.3
20260502021925 62 0 0.0 0.0 0.00 0.00 0.00 40 1010.3
20260502021825 62 0 0.0 0.0 0.00 0.00 0.00 40 1010.2
20260502021725 62 0 0.0 0.0 0.00 0.00 0.00 40 1010.2
20260502021625 62 0 0.0 0.0 0.00 0.00 0.00 40 1010.2
20260502021525 62 0 0.0 0.0 0.00 0.00 0.00 40 1010.2
20260502021404 62 0 0.0 0.0 0.00 0.00 0.00 40 1010.3
20260502021304 62 0 0.0 0.0 0.00 0.00 0.00 40 1010.3
20260502021204 62 0 0.0 0.0 0.00 0.00 0.00 40 1010.3
20260502021104 62 0 0.0 0.0 0.00 0.00 0.00 40 1010.3
20260502021004 62 0 0.0 0.0 0.00 0.00 0.00 40 1010.3
20260502020904 62 0 0.0 0.0 0.00 0.00 0.00 40 1010.1
20260502020804 62 0 0.0 0.0 0.00 0.00 0.00 40 1010.1
20260502020704 62 0 0.0 0.0 0.00 0.00 0.00 40 1010.1
20260502020604 62 0 0.0 0.0 0.00 0.00 0.00 40 1010.2
20260502020504 62 0 0.0 0.0 0.00 0.00 0.00 40 1010.2
20260502020425 62 0 0.0 0.0 0.00 0.00 0.00 40 1010.2
20260502020304 62 0 0.0 0.0 0.00 0.00 0.00 40 1010.2
20260502020204 62 0 0.0 0.0 0.00 0.00 0.00 40 1010.2
20260502020104 62 0 0.0 0.0 0.00 0.00 0.00 40 1010.2
20260502020004 62 0 0.0 0.0 0.00 0.00 0.00 40 1010.2
20260502015925 62 0 0.0 0.0 0.00 0.00 0.00 40 1010.2
20260502015804 62 0 0.0 0.0 0.00 0.00 0.00 40 1010.2
20260502015704 62 0 0.0 0.0 0.00 0.00 0.00 40 1010.2
20260502015604 62 0 0.0 0.0 0.00 0.00 0.00 40 1010.1
20260502015504 62 0 0.0 0.0 0.00 0.00 0.00 40 1010.1
20260502015404 62 0 0.0 0.0 0.00 0.00 0.00 40 1010.1
20260502015305 62 0 0.0 0.0 0.00 0.00 0.00 40 1010.0
20260502015204 62 0 0.0 0.0 0.00 0.00 0.00 40 1010.0
20260502015104 62 0 0.0 0.0 0.00 0.00 0.00 40 1009.9
20260502015004 62 0 0.0 0.0 0.00 0.00 0.00 40 1009.9
20260502014904 62 0 0.0 0.0 0.00 0.00 0.00 40 1009.9
20260502014804 62 0 0.0 0.0 0.00 0.00 0.00 40 1009.9
20260502014704 62 0 0.0 0.0 0.00 0.00 0.00 40 1009.9
20260502014604 62 0 0.0 0.0 0.00 0.00 0.00 40 1009.8
20260502014504 62 0 0.0 0.0 0.00 0.00 0.00 40 1009.8
20260502014404 62 0 0.0 0.0 0.00 0.00 0.00 40 1009.8
20260502014325 62 0 0.0 0.0 0.00 0.00 0.00 40 1009.8
20260502014225 62 0 0.0 0.0 0.00 0.00 0.00 40 1009.8
20260502014125 62 0 0.0 0.0 0.00 0.00 0.00 40 1009.8
20260502014025 62 0 0.0 0.0 0.00 0.00 0.00 40 1009.8
20260502013926 62 0 0.0 0.0 0.00 0.00 0.00 40 1009.8
20260502013805 62 0 0.0 0.0 0.00 0.00 0.00 40 1009.9
20260502013705 62 0 0.0 0.0 0.00 0.00 0.00 40 1009.9
20260502013604 62 0 0.0 0.0 0.00 0.00 0.00 40 1009.9
20260502013505 62 0 0.0 0.0 0.00 0.00 0.00 40 1009.9
20260502013405 62 0 0.0 0.0 0.00 0.00 0.00 40 1009.9
20260502013325 62 0 0.0 0.0 0.00 0.00 0.00 40 1009.8
20260502013225 62 0 0.0 0.0 0.00 0.00 0.00 40 1009.8
20260502013125 62 0 0.0 0.0 0.00 0.00 0.00 40 1009.8
20260502013025 62 0 0.0 0.0 0.00 0.00 0.00 40 1009.9
20260502012926 62 0 0.0 0.0 0.00 0.00 0.00 40 1009.9
20260502012804 62 0 0.0 0.0 0.00 0.00 0.00 40 1009.9
20260502012704 62 0 0.0 0.0 0.00 0.00 0.00 40 1009.9
20260502012604 62 0 0.0 0.0 0.00 0.00 0.00 40 1009.9
20260502012504 62 0 0.0 0.0 0.00 0.00 0.00 40 1010.0
20260502012404 62 0 0.0 0.0 0.00 0.00 0.00 40 1010.0
20260502012306 62 0 0.0 0.0 0.00 0.00 0.00 40 1010.0
20260502012204 62 0 0.0 0.0 0.00 0.00 0.00 40 1010.0
20260502012104 62 0 0.0 0.0 0.00 0.00 0.00 40 1010.0
20260502012004 62 0 0.0 0.0 0.00 0.00 0.00 40 1010.0
20260502011904 62 0 0.0 0.0 0.00 0.00 0.00 40 1010.0
20260502011804 62 0 0.0 0.0 0.00 0.00 0.00 40 1010.0
20260502011704 62 0 0.0 0.0 0.00 0.00 0.00 40 1010.0
20260502011604 62 0 0.0 0.0 0.00 0.00 0.00 40 1010.0
20260502011504 62 0 0.0 0.0 0.00 0.00 0.00 40 1010.0
20260502011404 62 0 0.0 0.0 0.00 0.00 0.00 40 1010.0
20260502011304 62 0 0.0 0.0 0.00 0.00 0.00 40 1010.0
20260502011204 62 0 0.0 0.0 0.00 0.00 0.00 40 1010.0
20260502011104 62 0 0.0 0.0 0.00 0.00 0.00 40 1010.0
20260502011005 62 0 0.0 0.0 0.00 0.00 0.00 40 1010.0
20260502010904 62 0 0.0 0.0 0.00 0.00 0.00 40 1010.0
20260502010804 62 0 0.0 0.0 0.00 0.00 0.00 40 1010.0
20260502010704 62 0 0.0 0.0 0.00 0.00 0.00 40 1010.0
20260502010604 62 0 0.0 0.0 0.00 0.00 0.00 40 1010.0
20260502010504 62 0 0.0 0.0 0.00 0.00 0.00 40 1010.0
20260502010404 62 0 0.0 0.0 0.00 0.00 0.00 40 1010.0
20260502010304 62 0 0.0 0.0 0.00 0.00 0.00 40 1010.0
20260502010204 62 0 0.0 0.0 0.00 0.00 0.00 40 1010.0
20260502010104 62 0 0.0 0.0 0.00 0.00 0.00 40 1010.0
20260502010004 62 0 0.0 0.0 0.00 0.00 0.00 40 1010.0
20260502005904 62 0 0.0 0.0 0.00 0.00 0.00 40 1010.0
20260502005804 62 0 0.0 0.0 0.00 0.00 0.00 40 1010.0
20260502005704 62 0 0.0 0.0 0.00 0.00 0.00 40 1010.1
20260502005604 62 0 0.0 0.0 0.00 0.00 0.00 40 1010.0
20260502005504 62 0 0.0 0.0 0.00 0.00 0.00 40 1010.0
20260502005404 62 0 0.0 0.0 0.00 0.00 0.00 40 1010.0
20260502005306 62 0 0.0 0.0 0.00 0.00 0.00 40 1010.1
20260502005204 62 0 0.0 0.0 0.00 0.00 0.00 40 1010.1
20260502005104 62 0 0.0 0.0 0.00 0.00 0.00 40 1010.1
20260502005004 62 0 0.0 0.0 0.00 0.00 0.00 40 1010.1
20260502004904 62 0 0.0 0.0 0.00 0.00 0.00 40 1010.1
20260502004804 62 0 0.0 0.0 0.00 0.00 0.00 40 1010.1
20260502004704 62 0 0.0 0.0 0.00 0.00 0.00 40 1010.1
20260502004604 62 0 0.0 0.0 0.00 0.00 0.00 40 1010.0
20260502004504 62 0 0.0 0.0 0.00 0.00 0.00 40 1010.0
20260502004404 62 0 0.0 0.0 0.00 0.00 0.00 40 1010.0
20260502004304 62 0 0.0 0.0 0.00 0.00 0.00 40 1010.0
20260502004204 62 0 0.0 0.0 0.00 0.00 0.00 40 1009.9
20260502004104 62 0 0.0 0.0 0.00 0.00 0.00 40 1009.9
20260502004004 62 0 0.0 0.0 0.00 0.00 0.00 40 1009.9
20260502003904 62 0 0.0 0.0 0.00 0.00 0.00 40 1009.9
20260502003804 62 0 0.0 0.0 0.00 0.00 0.00 40 1009.9
20260502003704 62 0 0.0 0.0 0.00 0.00 0.00 40 1009.9
20260502003604 62 0 0.0 0.0 0.00 0.00 0.00 40 1009.9
20260502003504 62 0 0.0 0.0 0.00 0.00 0.00 40 1009.9
20260502003404 62 0 0.0 0.0 0.00 0.00 0.00 40 1009.9
20260502003304 62 0 0.0 0.0 0.00 0.00 0.00 40 1009.9
20260502003204 62 0 0.0 0.0 0.00 0.00 0.00 40 1009.9
20260502003104 62 0 0.0 0.0 0.00 0.00 0.00 40 1009.9
20260502003004 62 0 0.0 0.0 0.00 0.00 0.00 40 1009.9
20260502002904 62 0 0.0 0.0 0.00 0.00 0.00 40 1009.9
20260502002804 62 0 0.0 0.0 0.00 0.00 0.00 40 1009.8
20260502002704 62 0 0.0 0.0 0.00 0.00 0.00 40 1009.8
20260502002604 62 0 0.0 0.0 0.00 0.00 0.00 40 1009.8
20260502002504 62 0 0.0 0.0 0.00 0.00 0.00 40 1009.8
20260502002404 62 0 0.0 0.0 0.00 0.00 0.00 40 1009.7
20260502002305 62 0 0.0 0.0 0.00 0.00 0.00 40 1009.7
20260502002204 62 0 0.0 0.0 0.00 0.00 0.00 40 1009.7
20260502002104 62 0 0.0 0.0 0.00 0.00 0.00 40 1009.7
20260502002004 62 0 0.0 0.0 0.00 0.00 0.00 40 1009.7
20260502001904 62 0 0.0 0.0 0.00 0.00 0.00 40 1009.7
20260502001804 62 0 0.0 0.0 0.00 0.00 0.00 40 1009.7
20260502001704 62 0 0.0 0.0 0.00 0.00 0.00 40 1009.6
20260502001604 62 0 0.0 0.0 0.00 0.00 0.00 40 1009.6
20260502001504 62 0 0.0 0.0 0.00 0.00 0.00 40 1009.6
20260502001404 62 0 0.0 0.0 0.00 0.00 0.00 40 1009.6
20260502001304 62 0 0.0 0.0 0.00 0.00 0.00 40 1009.6
20260502001204 62 0 0.0 0.0 0.00 0.00 0.00 40 1009.6
20260502001104 62 0 0.0 0.0 0.00 0.00 0.00 40 1009.6
20260502001004 62 0 0.0 0.0 0.00 0.00 0.00 40 1009.6
20260502000904 62 0 0.0 0.0 0.00 0.00 0.00 40 1009.6
20260502000804 62 0 0.0 0.0 0.00 0.00 0.00 40 1009.6
20260502000704 62 0 0.0 0.0 0.00 0.00 0.00 40 1009.6
20260502000605 62 0 0.0 0.0 0.00 0.00 0.00 40 1009.6
20260502000504 62 0 0.0 0.0 0.00 0.00 0.00 40 1009.6
20260502000404 62 0 0.0 0.0 0.00 0.00 0.00 40 1009.5
20260502000304 62 0 0.0 0.0 0.00 0.00 0.00 40 1009.5
20260502000204 62 0 0.0 0.0 0.00 0.00 0.00 40 1009.5
20260502000104 62 0 0.0 0.0 0.00 0.00 0.00 40 1009.5
20260502000005 62 0 0.0 0.0 0.00 0.00 0.00 40 1009.5
20260501235905 62 0 0.0 0.0 0.00 0.00 0.00 40 1009.5
20260501235804 62 0 0.0 0.0 0.00 0.00 0.00 40 1009.5
20260501235704 62 0 0.0 0.0 0.00 0.00 0.00 40 1009.5
20260501235604 62 0 0.0 0.0 0.00 0.00 0.00 40 1009.5
20260501235504 62 0 0.0 0.0 0.00 0.00 0.00 40 1009.4
20260501235404 62 0 0.0 0.0 0.00 0.00 0.00 40 1009.4
20260501235305 62 0 0.0 0.0 0.00 0.00 0.00 40 1009.4
20260501235204 62 0 0.0 0.0 0.00 0.00 0.00 40 1009.4
20260501235104 62 0 0.0 0.0 0.00 0.00 0.00 40 1009.4
20260501235004 62 0 0.0 0.0 0.00 0.00 0.00 40 1009.3
20260501234904 62 0 0.0 0.0 0.00 0.00 0.00 40 1009.3
20260501234804 62 0 0.0 0.0 0.00 0.00 0.00 40 1009.3
20260501234704 62 0 0.0 0.0 0.00 0.00 0.00 40 1009.3
20260501234604 62 0 0.0 0.0 0.00 0.00 0.00 40 1009.3
20260501234504 62 0 0.0 0.0 0.00 0.00 0.00 40 1009.3
20260501234404 62 0 0.0 0.0 0.00 0.00 0.00 40 1009.2
20260501234304 62 0 0.0 0.0 0.00 0.00 0.00 40 1009.2
20260501234204 62 0 0.0 0.0 0.00 0.00 0.00 40 1009.2
20260501234104 62 0 0.0 0.0 0.00 0.00 0.00 40 1009.2
20260501234004 62 0 0.0 0.0 0.00 0.00 0.00 40 1009.2
20260501233904 62 0 0.0 0.0 0.00 0.00 0.00 40 1009.1
20260501233825 62 0 0.0 0.0 0.00 0.00 0.00 40 1009.1
20260501233725 62 0 0.0 0.0 0.00 0.00 0.00 40 1009.1
20260501233625 62 0 0.0 0.0 0.00 0.00 0.00 40 1009.1
20260501233525 62 0 0.0 0.0 0.00 0.00 0.00 40 1009.1
20260501233404 62 0 0.0 0.0 0.00 0.00 0.00 40 1009.1
20260501233325 62 0 0.0 0.0 0.00 0.00 0.00 40 1009.1
20260501233225 62 0 0.0 0.0 0.00 0.00 0.00 40 1009.0
20260501233125 62 0 0.0 0.0 0.00 0.00 0.00 40 1008.9
20260501233025 62 0 0.0 0.0 0.00 0.00 0.00 40 1008.9
20260501232904 62 0 0.0 0.0 0.00 0.00 0.00 40 1008.9
20260501232804 62 0 0.0 0.0 0.00 0.00 0.00 40 1008.9
20260501232704 62 0 0.0 0.0 0.00 0.00 0.00 40 1008.9
20260501232604 62 0 0.0 0.0 0.00 0.00 0.00 40 1008.9
20260501232504 62 0 0.0 0.0 0.00 0.00 0.00 40 1008.9
20260501232404 62 0 0.0 0.0 0.00 0.00 0.00 40 1008.9
20260501232306 62 0 0.0 0.0 0.00 0.00 0.00 40 1008.8
20260501232204 62 0 0.0 0.0 0.00 0.00 0.00 40 1008.8
20260501232104 62 0 0.0 0.0 0.00 0.00 0.00 40 1008.7
20260501232004 62 0 0.0 0.0 0.00 0.00 0.00 40 1008.7
20260501231904 62 0 0.0 0.0 0.00 0.00 0.00 40 1008.6
20260501231825 62 0 0.0 0.0 0.00 0.00 0.00 40 1008.6
20260501231725 62 0 0.0 0.0 0.00 0.00 0.00 40 1008.5
20260501231625 62 0 0.0 0.0 0.00 0.00 0.00 40 1008.5
20260501231525 62 0 0.0 0.0 0.00 0.00 0.00 40 1008.5
20260501231425 62 0 0.0 0.0 0.00 0.00 0.00 40 1008.4
20260501231304 62 0 0.0 0.0 0.00 0.00 0.00 40 1008.4
20260501231204 62 0 0.0 0.0 0.00 0.00 0.00 40 1008.4
20260501231104 62 0 0.0 0.0 0.00 0.00 0.00 40 1008.4
20260501231004 62 0 0.0 0.0 0.00 0.00 0.00 40 1008.4
20260501230904 62 0 0.0 0.0 0.00 0.00 0.00 40 1008.4
20260501230804 62 0 0.0 0.0 0.00 0.00 0.00 40 1008.4
20260501230704 62 0 0.0 0.0 0.00 0.00 0.00 40 1008.4
20260501230604 62 0 0.0 0.0 0.00 0.00 0.00 40 1008.4
20260501230504 62 0 0.0 0.0 0.00 0.00 0.00 40 1008.4
20260501230404 62 0 0.0 0.0 0.00 0.00 0.00 40 1008.4
20260501230325 62 0 0.0 0.0 0.00 0.00 0.00 40 1008.3
20260501230225 62 0 0.0 0.0 0.00 0.00 0.00 40 1008.3
20260501230125 62 0 0.0 0.0 0.00 0.00 0.00 40 1008.3
20260501230025 62 0 0.0 0.0 0.00 0.00 0.00 40 1008.3
20260501225904 62 0 0.0 0.0 0.00 0.00 0.00 40 1008.3
20260501225804 62 0 0.0 0.0 0.00 0.00 0.00 40 1008.2
20260501225704 62 0 0.0 0.0 0.00 0.00 0.00 40 1008.2
20260501225604 62 0 0.0 0.0 0.00 0.00 0.00 40 1008.2
20260501225504 62 0 0.0 0.0 0.00 0.00 0.00 40 1008.1
20260501225404 62 0 0.0 0.0 0.00 0.00 0.00 40 1008.1
20260501225306 62 0 0.0 0.0 0.00 0.00 0.00 40 1008.1
20260501225204 62 0 0.0 0.0 0.00 0.00 0.00 40 1008.1
20260501225104 63 0 0.0 0.0 0.00 0.00 0.00 40 1008.1
20260501225004 63 0 0.0 0.0 0.00 0.00 0.00 39 1008.1
20260501224904 63 0 0.0 0.0 0.00 0.00 0.00 39 1008.1
20260501224804 63 0 0.0 0.0 0.00 0.00 0.00 39 1008.1
20260501224704 63 0 0.0 0.0 0.00 0.00 0.00 38 1008.0
20260501224604 63 0 0.0 0.0 0.00 0.00 0.00 38 1008.0
20260501224504 63 0 0.0 0.0 0.00 0.00 0.00 38 1008.0
20260501224404 63 0 0.0 0.0 0.00 0.00 0.00 38 1008.0
20260501224325 63 0 0.0 0.0 0.00 0.00 0.00 38 1008.0
20260501224225 63 0 0.0 0.0 0.00 0.00 0.00 38 1008.0
20260501224125 63 0 0.0 0.0 0.00 0.00 0.00 38 1008.0
20260501224025 63 0 0.0 0.0 0.00 0.00 0.00 38 1008.0
20260501223925 63 0 0.0 0.0 0.00 0.00 0.00 38 1008.0
20260501223804 63 0 0.0 0.0 0.00 0.00 0.00 38 1008.0
20260501223704 63 0 0.0 0.0 0.00 0.00 0.00 38 1008.0
20260501223604 63 0 0.0 0.0 0.00 0.00 0.00 38 1008.0
20260501223504 63 0 0.0 0.0 0.00 0.00 0.00 38 1007.9
20260501223404 63 0 0.0 0.0 0.00 0.00 0.00 37 1007.9
20260501223304 63 0 0.0 0.0 0.00 0.00 0.00 38 1008.0
20260501223204 63 0 0.0 0.0 0.00 0.00 0.00 38 1008.0
20260501223104 63 0 0.0 0.0 0.00 0.00 0.00 38 1008.0
20260501223004 63 0 0.0 0.0 0.00 0.00 0.00 38 1008.0
20260501222904 63 0 0.0 0.0 0.00 0.00 0.00 38 1008.0
20260501222804 63 0 0.0 0.0 0.00 0.00 0.00 38 1008.0
20260501222704 63 0 0.0 0.0 0.00 0.00 0.00 38 1008.0
20260501222604 63 0 0.0 0.0 0.00 0.00 0.00 38 1008.0
20260501222504 63 0 0.0 0.0 0.00 0.00 0.00 38 1008.1
20260501222404 63 0 0.0 0.0 0.00 0.00 0.00 37 1008.1
20260501222305 63 0 0.0 0.0 0.00 0.00 0.00 38 1008.1
20260501222204 63 0 0.0 0.0 0.00 0.00 0.00 38 1008.1
20260501222104 63 85 0.0 5.0 0.00 0.00 0.00 37 1008.1
20260501222004 63 85 0.0 5.0 0.00 0.00 0.00 38 1008.1
20260501221904 63 85 0.0 5.0 0.00 0.00 0.00 38 1008.2
20260501221825 63 85 0.0 5.0 0.00 0.00 0.00 37 1008.2
20260501221725 63 85 0.0 5.0 0.00 0.00 0.00 37 1008.1
20260501221625 63 85 0.0 5.0 0.00 0.00 0.00 37 1008.1
20260501221525 63 85 0.0 5.0 0.00 0.00 0.00 37 1008.2
20260501221425 63 85 0.0 5.0 0.00 0.00 0.00 37 1008.2
20260501221304 63 85 0.0 5.0 0.00 0.00 0.00 37 1008.2
20260501221204 63 85 0.0 5.0 0.00 0.00 0.00 37 1008.2
20260501221104 63 85 0.0 1.0 0.00 0.00 0.00 38 1008.2
20260501221004 63 85 0.0 1.0 0.00 0.00 0.00 37 1008.2
20260501220904 64 85 0.0 5.0 0.00 0.00 0.00 37 1008.2
20260501220804 64 85 0.0 7.0 0.00 0.00 0.00 37 1008.2
20260501220704 64 85 0.0 7.0 0.00 0.00 0.00 36 1008.2
20260501220604 64 85 0.0 7.0 0.00 0.00 0.00 36 1008.1
20260501220504 64 85 0.0 7.0 0.00 0.00 0.00 36 1008.1
20260501220404 64 85 0.0 7.0 0.00 0.00 0.00 36 1008.2
20260501220304 64 85 0.0 7.0 0.00 0.00 0.00 36 1008.2
20260501220204 64 85 0.0 7.0 0.00 0.00 0.00 36 1008.1
20260501220104 64 85 0.0 7.0 0.00 0.00 0.00 36 1008.1
20260501220004 64 85 0.0 7.0 0.00 0.00 0.00 36 1008.1
20260501215904 64 85 0.0 7.0 0.00 0.00 0.00 36 1008.1
20260501215825 64 0 0.0 0.0 0.00 0.00 0.00 36 1008.1
20260501215725 64 0 0.0 0.0 0.00 0.00 0.00 36 1008.0
20260501215625 64 0 0.0 0.0 0.00 0.00 0.00 37 1008.0
20260501215525 64 0 0.0 0.0 0.00 0.00 0.00 37 1008.0
20260501215404 64 0 0.0 0.0 0.00 0.00 0.00 36 1008.0
20260501215305 64 85 0.0 1.0 0.00 0.00 0.00 36 1008.0
20260501215204 64 85 0.0 1.0 0.00 0.00 0.00 37 1008.0
20260501215104 64 85 0.0 1.0 0.00 0.00 0.00 36 1008.0
20260501215004 64 85 0.0 1.0 0.00 0.00 0.00 36 1008.0
20260501214925 64 85 0.0 1.0 0.00 0.00 0.00 36 1008.0
20260501214804 64 85 0.0 1.0 0.00 0.00 0.00 36 1008.0
20260501214704 64 85 0.0 1.0 0.00 0.00 0.00 36 1008.0
20260501214604 64 85 0.0 1.0 0.00 0.00 0.00 36 1008.0
20260501214504 64 85 0.0 1.0 0.00 0.00 0.00 36 1008.0
20260501214404 64 85 0.0 1.0 0.00 0.00 0.00 36 1008.0
20260501214304 64 60 0.0 2.0 0.00 0.00 0.00 36 1008.0
20260501214204 64 56 0.0 2.0 0.00 0.00 0.00 36 1008.0
20260501214104 64 48 0.0 2.0 0.00 0.00 0.00 36 1008.0
20260501214004 64 21 0.0 2.0 0.00 0.00 0.00 36 1008.1
20260501213904 64 360 0.0 4.0 0.00 0.00 0.00 36 1008.1
20260501213804 64 352 0.0 7.0 0.00 0.00 0.00 35 1008.0
20260501213704 64 350 0.0 7.0 0.00 0.00 0.00 35 1007.9
20260501213604 65 350 0.0 7.0 0.00 0.00 0.00 35 1007.9
20260501213504 65 350 0.0 7.0 0.00 0.00 0.00 36 1007.9
20260501213404 65 350 0.0 7.0 0.00 0.00 0.00 35 1007.9
20260501213304 65 341 0.0 7.0 0.00 0.00 0.00 35 1007.9
20260501213204 65 341 0.0 7.0 0.00 0.00 0.00 35 1007.8
20260501213104 65 341 0.0 7.0 0.00 0.00 0.00 35 1007.8
20260501213004 65 339 0.0 7.0 0.00 0.00 0.00 34 1007.9
20260501212904 65 337 0.0 7.0 0.00 0.00 0.00 35 1007.9
20260501212804 65 325 0.0 2.0 0.00 0.00 0.00 35 1007.9
20260501212704 65 326 0.0 1.0 0.00 0.00 0.00 35 1007.8
20260501212604 65 335 0.0 1.0 0.00 0.00 0.00 35 1007.8
20260501212504 65 335 0.0 1.0 0.00 0.00 0.00 35 1007.8
20260501212404 65 4 0.0 7.0 0.00 0.00 0.00 34 1007.8
20260501212306 65 8 1.0 8.0 0.00 0.00 0.00 35 1007.8
20260501212204 65 8 1.0 8.0 0.00 0.00 0.00 34 1007.8
20260501212104 65 8 1.0 8.0 0.00 0.00 0.00 34 1007.8
20260501212004 65 9 1.0 8.0 0.00 0.00 0.00 35 1007.8
20260501211904 65 9 1.0 8.0 0.00 0.00 0.00 35 1007.8
20260501211804 65 9 1.0 8.0 0.00 0.00 0.00 35 1007.8
20260501211704 65 5 2.0 9.0 0.00 0.00 0.00 34 1007.7
20260501211604 65 5 2.0 9.0 0.00 0.00 0.00 34 1007.7
20260501211504 65 3 2.0 9.0 0.00 0.00 0.00 34 1007.8
20260501211404 65 1 2.0 9.0 0.00 0.00 0.00 34 1007.8
20260501211304 65 353 1.0 9.0 0.00 0.00 0.00 34 1007.8
20260501211204 65 331 1.0 9.0 0.00 0.00 0.00 34 1007.8
20260501211104 65 318 1.0 9.0 0.00 0.00 0.00 34 1007.9
20260501211004 65 311 1.0 9.0 0.00 0.00 0.00 34 1007.9
20260501210904 65 320 1.0 9.0 0.00 0.00 0.00 35 1007.9
20260501210804 65 308 1.0 9.0 0.00 0.00 0.00 36 1007.9
20260501210704 65 271 0.0 5.0 0.00 0.00 0.00 35 1007.8
20260501210604 65 271 0.0 5.0 0.00 0.00 0.00 35 1007.8
20260501210504 65 280 0.0 5.0 0.00 0.00 0.00 35 1007.8
20260501210404 65 281 0.0 5.0 0.00 0.00 0.00 35 1007.8
20260501210304 65 284 0.0 5.0 0.00 0.00 0.00 34 1007.8
20260501210204 65 350 1.0 5.0 0.00 0.00 0.00 34 1007.8
20260501210104 66 21 0.0 5.0 0.00 0.00 0.00 34 1007.8
20260501210004 66 35 0.0 5.0 0.00 0.00 0.00 33 1007.8
20260501205904 66 34 0.0 5.0 0.00 0.00 0.00 34 1007.8
20260501205804 66 34 0.0 5.0 0.00 0.00 0.00 35 1007.8
20260501205704 66 34 0.0 5.0 0.00 0.00 0.00 34 1007.8
20260501205604 66 34 0.0 5.0 0.00 0.00 0.00 34 1007.8
20260501205504 66 34 0.0 5.0 0.00 0.00 0.00 34 1007.8
20260501205404 66 34 0.0 5.0 0.00 0.00 0.00 34 1007.8
20260501205306 66 34 0.0 6.0 0.00 0.00 0.00 35 1007.8
20260501205204 66 34 0.0 6.0 0.00 0.00 0.00 35 1007.8
20260501205104 65 35 0.0 6.0 0.00 0.00 0.00 36 1007.9
20260501205004 65 35 1.0 6.0 0.00 0.00 0.00 36 1007.9
20260501204904 65 37 1.0 9.0 0.00 0.00 0.00 35 1007.9